Starlink 4372

operational
NORAD ID: 53233 Int'l Des: 2022-084 Owner: SPXS Country: US Constellation: starlink
LEOCIRCULARRETROGRADESSO

Starlink 4372について

説明を読み込み中...

リアルタイム位置

3D地球を読み込み中...

次回通過

高度履歴

Altitude vs Time

uPlot chart will show altitude changes over time

軌道要素

1 53233U 22084AW 25259.88526248 -.00000360 00000-0 -23471-4 0 9990
2 53233 97.6022 320.0592 0000917 198.8313 161.2877 15.01257585173243
Epoch: Sep 16, 2025 • Age: 30 hours

現在のステータス

高度 588.1 km
速度 7.56 km/s
衛星直下点 -65.79°S, 68.99°W
打ち上げ日 Jul 22, 2022
運用期間 3.1 years
タイプ internet

技術仕様

分類 Payload
質量 297.00 kg
乾燥質量 275.00 kg
総質量 297.00 kg
長さ 0.20 m
直径 2.80 m
スパン 9.00 m
形状 Box + pan
製造者 SPXS
バスタイプ Starlink
フェーズステータス In Orbit
所有者/国 SPXS/US

大規模コンステレーション

Loading constellations...